METEOR 2-11 DEB

Satellite information

Favourite Embed

Satellite Type and Status

DEBRISIN ORBIT

Key statistics

Satellite METEOR 2-11 DEB at a glance.

Uptime

15032

Days in orbit

Revolutions

≈ 14.0

Per day

Orbit

LEO

Low Earth Orbit

Inclination

82.5

Latest

Satellite identification and parameters

Extended collection of information and parameters for METEOR 2-11 DEB.

Object identification

Identified? True

Debris? True

Object name: METEOR 2-11 DEB

International designator: 1984-072AA

Object number (NORAD): 60005

Object ID (CCSDS): 60005

Country: COMMONWEALTH OF INDEPENDENT STATES (CIS)

Current information (Y/N): Y

RCS size: SMALL

Orbital parameters

Period: 102.911 minutes

Inclination: 82.5198 deg

SMA: 7274.48 km

Apoapsis: 916.753 km

Periapsis: 875.938 km

RAAN: 241.7644 deg

Eccentricy: 0.00280535

Argument of periapsis: 81.67 deg

Mean anomaly: 278.7647 deg

Mean motion: 13.99264505 rev/day

Mean motion (dot): 0.00001522 rev/day2

B* drag term: 0.0010348989 1/REarth

Two-line elements (TLE)

Creation date: Aug. 28, 2025, 2:53 a.m.

Reference frame: TEME

Reference center: EARTH

Epoch: Aug. 27, 2025, 5:17 p.m. UTC

TLE line 0: 0 METEOR 2-11 DEB

TLE line 1: 1 60005U 84072AA 25239.72056957 .00001522 00000-0 10349-2 0 9993

TLE line 2: 2 60005 82.5198 241.7644 0028053 81.6700 278.7647 13.99264505395859

Live tracking on map

Real-time ground track for satellite METEOR 2-11 DEB.

In-orbit conjunctions

A list of the most updated potential collisions computed for object METEOR 2-11 DEB.

Target Orbit TCA Probability of collision Miss distance Type
COSMOS 1275 DEB LEO 2025-06-07 17:55:09 0.0001086088 199.0 (m) DEBRIS
DMSP 5D-2 F13 DEB SSO 2025-02-01 05:23:41 0.0001276899 215.0 (m) DEBRIS
SL-16 DEB LEO 2024-12-01 15:13:22 0.000174815 329.0 (m) DEBRIS
YAOGAN 7 DEB SSO 2024-12-01 10:51:36 0.000104366 551.0 (m) DEBRIS
FENGYUN 1C DEB SSO 2024-09-24 22:16:36 0.0004092742 119.0 (m) DEBRIS

Associated space launch

Second generation soviet meteorological satellite

METEOR 2-11 DEB was lifted into orbit during the mission ‘Tsiklon-3 | Meteor-2 11’, on board a Tsiklon-3 space rocket.

The launch took place on July 5, 1984, 3:35 a.m. from 32/2.

For more information about the launch, click the button.

Launch to space Tsiklon-3 | Meteor-2 11
Tsiklon-3 | Meteor-2 11

Agency: N/A

Status: Launch Successful

Launch date: July 5, 1984, 3:35 a.m. UTC

Rocket: Tsiklon-3

Launch pad: 32/2

Location: Plesetsk Cosmodrome, Russian Federation

...

Latest news about this satellite

There are no fresh news available about this satellite. Check back as we update our databases every day.


Newsletter sign-up

Weekly statistics, charts and insights to help you stay on top of the space industry.